Regional Weather Roundup
Issued by NWS

Home | Current Version | Previous Version | Graphics & Text | Print | Product List | Glossary Off
Versions: 1 2 3 4 5 6 7 8 9 10 11 12 13 14 15 16 17 18 19 20 21 22 23 24 25 26 27 28 29 30 31 32 33 34 35 36 37 38 39 40 41 42 43 44 45 46 47 48 49

000
ASUS45 KBOU 222007
RWRCO

WEATHER ROUNDUP FOR COLORADO
NATIONAL WEATHER SERVICE DENVER/BOULDER CO
200 PM MDT MON SEP 22 2014

NOTE: "FAIR" INDICATES FEW OR NO CLOUDS BELOW 12000 FEET WITH NO
SIGNIFICANT WEATHER AND/OR OBSTRUCTIONS TO VISIBILITY.

COZ001>005-013-030-031-222100-
...NORTHWEST COLORADO...

CITY           SKY/WX    TMP DP  RH WIND       PRES   REMARKS
CRAIG          PTSUNNY   68  50  52 VRB5      30.24F
HAYDEN         MOSUNNY   63  46  55 NW5       30.26F
MEEKER         PTSUNNY   67  50  54 W8        30.24F
MOUNT WERNER   NOT AVBL
STEAMBOAT SPGS MOSUNNY   62  47  58 N3        30.28F
WALDEN         PTSUNNY   59  36  41 SW21      30.32F
$$

COZ006>008-011-222100-
...WEST CENTRAL VALLEYS...

CITY           SKY/WX    TMP DP  RH WIND       PRES   REMARKS
GRAND JUNCTION MOSUNNY   74  55  51 N3        30.18F
MONTROSE       PTSUNNY   76  55  48 N8        30.23F
EAGLE          MOSUNNY   59  54  82 NE9       30.32F
RIFLE          MOSUNNY   68  53  58 NW5       30.23F
DELTA          NOT AVBL
NUCLA          MOSUNNY   77  45  31 SW9G23    30.28S
$$

COZ017>023-064>068-222100-
...SOUTHWEST COLORADO...

CITY           SKY/WX    TMP DP  RH WIND       PRES   REMARKS
DURANGO        MOSUNNY   69  56  62 VRB6      30.31F
CORTEZ         MOSUNNY   77  54  44 SW15G21   30.27F
PAGOSA SPRINGS PTSUNNY   65  52  62 W6        30.38F
TELLURIDE      NOT AVBL
WOLF CREEK PAS SNOW      43  43 100 SW31G39   30.59F VSB<1/4
$$

COZ009-010-012-014-032>034-037-058>063-222100-
...CENTRAL COLORADO...

CITY           SKY/WX    TMP DP  RH WIND       PRES   REMARKS
ASPEN          MOSUNNY   62  48  60 NW13G18   30.34F
BUENA VISTA    PTSUNNY   66  46  49 SE8       30.31F
COPPER MTN     CLOUDY    45  37  76 W20       30.57S
BERTHOUD PASS  LGT RAIN  34  32  93 W22G31    30.60S VSB 3/4 WCI  22
COTTONWOOD PAS MOSUNNY   61  37  41 W3        30.44F
GUNNISON       PTSUNNY   63  46  55 SW7       30.35F
KREMMLING      CLOUDY    59  45  58 S8        30.34F
LEADVILLE      MOSUNNY   57  36  45 VRB3      30.42F
MONARCH PASS   FOG       43  41  93 W43G51    30.65F VSB 1/4
SALIDA         PTSUNNY   73  48  41 SW13G21   30.36F
SUNLIGHT       RAIN      50  46  87 CALM      30.53S
WILKERSON PASS NOT AVBL
$$

COZ069>075-222100-
...SAN LUIS VALLEY/SANGRE DE CRISTO MOUNTAINS...

CITY           SKY/WX    TMP DP  RH WIND       PRES   REMARKS
ALAMOSA        LGT RAIN  74  45  35 W10G17    30.30F
LA VETA PASS   CLOUDY    54  46  76 S9G17     30.48F
SAGUACHE       NOT AVBL
$$

COZ035-036-038>040-222100-
...NORTHERN COLORADO FRONT RANGE...

CITY           SKY/WX    TMP DP  RH WIND       PRES   REMARKS
DENVER INTL AP PTSUNNY   77  52  41 S7        30.13F
DMNS CITY PARK   N/A     77  53  42 N15       30.12R
AURORA         PTSUNNY   78  52  41 S9        30.14F
FRONT RANGE AP NOT AVBL
ERIE MUNI ARPT NOT AVBL
BOULDER MUN AP MOSUNNY   72  50  46 NE7       30.14F
CENTENNIAL     PTSUNNY   74  51  44 SE8       30.15F
BROOMFIELD     PTSUNNY   73  54  49 N10       30.17F
FORT COLLINS   PTSUNNY   72  55  56 N8        30.15F
LONGMONT       PTSUNNY   80  51  37 E7        30.15F HAZE
$$

COZ041-046-047-076>085-087-088-222100-
...PIKES PEAK/PALMER DIVIDE AND SOUTHERN FOOTHILLS...

CITY           SKY/WX    TMP DP  RH WIND       PRES   REMARKS
COLO. SPRINGS  PTSUNNY   69  51  52 S6        30.23F
A. F. ACADEMY  LGT RAIN  66  53  62 S10       30.23F
ELLICOTT       NOT AVBL
FALCON         PTSUNNY   67  51  55 S12       30.27F
FORT CARSON    PTSUNNY   67  53  59 SE5       30.20F
LIMON          PTSUNNY   75  52  44 S21G26    30.17F
MONUMENT HILL  CLOUDY    68  50  52 S12       30.24F
TRINIDAD       PTSUNNY   77  55  46 SW22G32   30.20F
$$

COZ042>045-048>051-090-091-222100-
...NORTHEAST COLORADO...

CITY           SKY/WX    TMP DP  RH WIND       PRES   REMARKS
GREELEY ARPT   PTSUNNY   73  52  46 NW12      30.15S
AKRON          PTSUNNY   73  56  54 S20G33    30.13F
BURLINGTON     CLOUDY    75  51  43 S22G35    30.17F
WRAY           CLOUDY    75  52  43 S21G31    30.14F
STERLING       PTSUNNY   82  61  47 S18       30.08F
HOLYOKE        CLOUDY    68  55  64 SE15G22   30.12F
FORT MORGAN    PTSUNNY   76  51  40 S6        30.11F
$$

COZ086-089-092>099-222100-
...SOUTHEAST COLORADO...

CITY           SKY/WX    TMP DP  RH WIND       PRES   REMARKS
PUEBLO         PTSUNNY   72  53  51 CALM      30.13F
LA JUNTA       CLOUDY    81  55  40 S14G26    30.11F
LAMAR          PTSUNNY   79  56  45 S28G35    30.13F
SPRINGFIELD      N/A     72  57  59 S25G33    30.22F
$$



USA.gov is the U.S. government's official web portal to all federal, state and local government web resources and services.